Regional Weather Roundup
Issued by NWS Newport/Morehead, NC

Home | Current Version | Previous Version | Text Only | Print | Product List | Glossary On
Versions: 1 2 3 4 5 6 7 8 9 10 11 12 13 14 15 16 17 18 19 20 21 22 23 24 25 26 27 28 29 30 31 32 33 34 35 36 37 38 39 40 41 42 43 44 45 46 47 48 49 50
000
ASUS42 KMHX 301410
RWRMHX
WEATHER ROUNDUP FOR EASTERN NORTH CAROLINA
NATIONAL WEATHER SERVICE NEWPORT/MOREHEAD CITY NC
1000 AM EDT THU OCT 30 2014

NOTE: "FAIR" INDICATES FEW OR NO CLOUDS BELOW 12,000 FEET
WITH NO SIGNIFICANT WEATHER AND/OR OBSTRUCTIONS TO VISIBILITY

NCZ015>017-031-032-045>047-102-103-301500-
NORTH COAST

CITY           SKY/WX    TMP DP  RH WIND       PRES   REMARKS
EDENTON        PTSUNNY   56  54  92 N8        30.04R
ELIZABETH CITY PTSUNNY   60  51  72 N12       30.03R
KITTY HAWK     PTSUNNY   61  51  68 N10       30.00R
MANTEO         PTSUNNY   61  49  65 N14       30.01R

$$

NCZ045>047-081-094-103-104-301500-
CENTRAL COAST

CITY           SKY/WX    TMP DP  RH WIND       PRES   REMARKS
FRISCO         CLOUDY    61  54  77 NE12G22   29.98S
SWANQUARTER      N/A     59 N/A N/A NE7G13    29.97S

$$

NCZ095-097-098-100-101-301500-
SOUTHERN COAST

CITY           SKY/WX    TMP DP  RH WIND       PRES   REMARKS
BEAUFORT       MOSUNNY   63  55  75 NE17G28   29.98F
CEDAR ISLAND     N/A     61 N/A N/A N15G22    30.03F
JACKSONVILLE   PTSUNNY   59  52  77 N10       30.01R
PINEY ISLAND   CLOUDY    64  53  67 NE15G23   30.00R
WILMINGTON     CLOUDY    59  54  83 N9        30.00S


$$

NCZ011>013-027>030-043-044-078>080-089-090>093-098-301500-
COASTAL PLAIN

CITY           SKY/WX    TMP DP  RH WIND       PRES   REMARKS
AHOSKIE        NOT AVBL
CLINTON        SUNNY     60  51  72 NE7       30.04S
ELIZABETHTOWN  SUNNY     60  51  74 CALM      30.03R
GOLDSBORO      SUNNY     60  55  86 NE8       30.03R
GREENVILLE     PTSUNNY   55  52  88 N6        30.06S
HAVELOCK       PTSUNNY   59  53  80 N13G20    30.02R
KENANSVILLE    SUNNY     59  50  73 N6        30.04S
KINSTON        SUNNY     59  50  72 NE8       30.04S
NEW BERN       SUNNY     60  53  77 N12       30.03S
RICHLANDS      SUNNY     59  48  67 NE14      30.03R
ROCKY MOUNT    SUNNY     59  51  75 NE5       30.05S
WASHINGTON     SUNNY     56  52  85 NE5       30.04S
WHITEVILLE     MOSUNNY   60  54  79 NE7       30.01S

$$

AMZ130-135-150-152-154-156-158-170-250-252-270-ANZ085-086-088-633-658-670-301500-
MARINE OBSERVATIONS

STATION/POSITION TIME  TEMP    WIND        PRES    WAVE   SWELL
                       AIR SEA DIR/SP/G            HT/PER HT/PER
                 (UTC) (F)     (DEG/KT/KT) (MB)    (FT/S) (FT/S)
CHESAPEAKE LIGHT 1300   59     360/ 14/ 15 1016.9
64 E VA BEACH    1400   62 67   30/ 16/ 19 1015.3    4/ 5
DUCK             1400   62 67   20/ 16/ 18 1015.4
2 E DUCK         NOT AVBL
10 NE DUCK       1400      67                N/A     4/ 5
OREGON INLET     1400   61 67   30/ 14/ 18 1015.6
13E OREGON INLT  1400      70                N/A     6/ 6
HATTERAS CG      1400   62 70   30/ 12/ 19 1015.6
DIAMOND BUOY     1400   67     360/ 17/ 21 1014.6    4/ 6
17 S OCRACOKE    NOT AVBL
CAPE LOOKOUT     1400   61      10/ 16/ 18 1015.2
BEAUFORT LAB     1400   61 70   20/ 12/ 18 1014.9
30 SE NEW RIVER  1400   63 74   30/ 19/ 23 1014.3    4/ 5
5 SE WRIGHTSVLE  1300   59 71   40/ 19/ 23   N/A
225 S CAPE HAT   1336   76 77  250/  8/ 10 1014.9    2/ 6   2/ 6
41 SE CHARLESTON 1400   69 77   10/ 14/ 16 1014.1    3/ 4   2/ 9

$$



USA.gov is the U.S. government's official web portal to all federal, state and local government web resources and services.